LGR888 PADK-RJTT

Flight info

Callsign LGR888
Flight time N/A
Altitude 40000
Route JALEX3 LONOK G8 ADK R451 CHIKI DCT SYA G215 NRKEY R220 IXE Y88 DAIGO Y10 GODIN
Aircraft A339/H-SADE1E2E3GHIJ3J5M1P2RWXY/LB2D1

Departure

Time 2026-05-04 07:27
Airport Adak Airport (PADK)

Arrival

Time N/A
Airport Tokyo Haneda International Airport (RJTT)
Time Latitude Longitude Altitude Speed Heading
2026-05-04 06:57 51.87379 -176.64572 15 ft 0 kts 214°
2026-05-04 07:19 51.87365 -176.64589 15 ft 4 kts 221°
2026-05-04 07:19 51.87334 -176.64642 12 ft 9 kts 228°
2026-05-04 07:19 51.87284 -176.64700 11 ft 9 kts 207°
2026-05-04 07:20 51.87255 -176.64764 9 ft 7 kts 257°
2026-05-04 07:20 51.87246 -176.64847 8 ft 7 kts 276°
2026-05-04 07:20 51.87279 -176.64911 8 ft 8 kts 332°
2026-05-04 07:20 51.87340 -176.64932 8 ft 10 kts 357°
2026-05-04 07:22 51.88043 -176.64822 15 ft 11 kts
2026-05-04 07:22 51.88095 -176.64868 16 ft 8 kts 299°
2026-05-04 07:23 51.88101 -176.64955 17 ft 9 kts 261°
2026-05-04 07:23 51.88082 -176.65062 17 ft 11 kts 247°
2026-05-04 07:23 51.88046 -176.65178 19 ft 12 kts 240°
2026-05-04 07:23 51.88000 -176.65292 21 ft 13 kts 237°
2026-05-04 07:24 51.87954 -176.65418 25 ft 13 kts 239°
2026-05-04 07:24 51.87910 -176.65549 26 ft 15 kts 245°
2026-05-04 07:24 51.87878 -176.65692 30 ft 6 kts 239°
2026-05-04 07:24 51.87867 -176.65686 30 ft 2 kts 99°
2026-05-04 07:25 51.87868 -176.65666 29 ft 1 kts 84°
2026-05-04 07:26 51.88777 -176.63034 55 ft 157 kts 63°
2026-05-04 07:27 51.89293 -176.61594 604 ft 151 kts 63°
2026-05-04 07:27 51.89789 -176.60196 1219 ft 145 kts 65°
2026-05-04 07:27 51.90264 -176.58847 1739 ft 140 kts 67°
2026-05-04 07:27 51.90731 -176.57486 1998 ft 151 kts 67°
2026-05-04 07:28 51.91263 -176.55924 2268 ft 164 kts 66°
2026-05-04 07:28 51.91793 -176.54378 2535 ft 176 kts 66°
2026-05-04 07:28 51.92391 -176.52640 2817 ft 190 kts 66°
2026-05-04 07:28 51.93045 -176.50742 3110 ft 205 kts 65°
2026-05-04 07:29 51.93768 -176.48650 3412 ft 220 kts 65°
2026-05-04 07:29 51.94536 -176.46434 3818 ft 232 kts 65°
2026-05-04 07:29 51.95282 -176.44287 4386 ft 235 kts 64°
2026-05-04 07:29 51.96165 -176.42273 4918 ft 243 kts 47°
2026-05-04 07:30 51.97537 -176.40831 5459 ft 256 kts 25°
2026-05-04 07:30 51.99147 -176.39987 6046 ft 260 kts 20°
2026-05-04 07:30 52.00835 -176.39186 6635 ft 262 kts 20°
2026-05-04 07:30 52.02555 -176.38370 7221 ft 265 kts 20°
2026-05-04 07:31 52.04294 -176.37529 7803 ft 267 kts 20°
2026-05-04 07:31 52.05978 -176.36700 8360 ft 269 kts 20°
2026-05-04 07:33 52.18487 -176.30428 12185 ft 285 kts 20°
2026-05-04 07:33 52.20375 -176.29474 12720 ft 287 kts 21°
2026-05-04 07:33 52.22258 -176.28436 13247 ft 287 kts 30°
2026-05-04 07:33 52.23785 -176.26660 13743 ft 283 kts 50°
2026-05-04 07:34 52.24826 -176.24147 14241 ft 280 kts 70°
2026-05-04 07:34 52.25285 -176.21301 14715 ft 280 kts 87°
2026-05-04 07:34 52.25148 -176.18308 15165 ft 282 kts 103°
2026-05-04 07:34 52.24666 -176.15216 15643 ft 285 kts 105°
2026-05-04 07:35 52.24152 -176.12039 16112 ft 289 kts 105°
2026-05-04 07:35 52.23655 -176.08937 16583 ft 292 kts 104°
2026-05-04 07:35 52.23155 -176.05766 17045 ft 295 kts 104°
2026-05-04 07:35 52.22680 -176.02725 17471 ft 298 kts 104°
2026-05-04 07:36 52.22176 -175.99489 17795 ft 306 kts 104°
2026-05-04 07:36 52.21658 -175.96153 18012 ft 318 kts 104°
2026-05-04 07:38 52.17321 -175.68599 19541 ft 404 kts 109°
2026-05-04 07:38 52.16017 -175.64513 19733 ft 413 kts 127°
2026-05-04 07:38 52.14065 -175.61348 20083 ft 419 kts 143°
2026-05-04 07:38 52.11605 -175.59160 20541 ft 421 kts 160°
2026-05-04 07:39 52.08807 -175.58192 21011 ft 424 kts 176°
2026-05-04 07:39 52.05982 -175.58571 21461 ft 427 kts 193°
2026-05-04 07:39 52.03323 -175.60255 21894 ft 430 kts 209°
2026-05-04 07:39 52.01057 -175.63138 22321 ft 433 kts 226°
2026-05-04 07:40 51.99394 -175.66989 22731 ft 438 kts 242°
2026-05-04 07:40 51.98481 -175.71579 23107 ft 443 kts 260°
2026-05-04 07:40 51.98472 -175.76570 23464 ft 449 kts 278°
2026-05-04 07:40 51.99420 -175.81351 23790 ft 456 kts 296°
2026-05-04 07:41 52.01227 -175.85596 24117 ft 460 kts 308°
2026-05-04 07:41 52.03064 -175.89778 24424 ft 463 kts 297°
2026-05-04 07:41 52.04094 -175.94553 24746 ft 463 kts 278°
2026-05-04 07:41 52.04097 -175.99709 25079 ft 461 kts 258°
2026-05-04 07:42 52.03113 -176.04567 25425 ft 460 kts 245°
2026-05-04 07:42 52.01858 -176.09376 25794 ft 462 kts 245°
2026-05-04 07:42 52.00632 -176.14137 26091 ft 466 kts 245°
2026-05-04 07:42 51.99395 -176.19023 26394 ft 470 kts 246°
2026-05-04 07:43 51.98196 -176.23825 26699 ft 473 kts 246°
2026-05-04 07:43 51.97012 -176.28571 26999 ft 475 kts 246°
2026-05-04 07:43 51.95777 -176.33516 27306 ft 478 kts 246°
2026-05-04 07:43 51.94527 -176.38510 27572 ft 481 kts 246°
2026-05-04 07:44 51.93269 -176.43507 27865 ft 483 kts 246°
2026-05-04 07:44 51.92009 -176.48506 28150 ft 486 kts 246°
2026-05-04 07:44 51.90771 -176.53401 28414 ft 488 kts 246°
2026-05-04 07:44 51.89520 -176.58362 28689 ft 490 kts 247°
2026-05-04 07:45 51.88459 -176.63530 28938 ft 495 kts 253°
2026-05-04 07:45 51.87743 -176.68942 29200 ft 499 kts 259°
2026-05-04 07:45 51.87406 -176.74530 29503 ft 502 kts 266°
2026-05-04 07:45 51.87430 -176.79910 29871 ft 502 kts 270°
2026-05-04 07:46 51.87578 -176.85446 30226 ft 502 kts 271°
2026-05-04 07:46 51.87749 -176.90894 30567 ft 501 kts 271°
2026-05-04 07:46 51.87920 -176.96307 30874 ft 501 kts 271°
2026-05-04 07:46 51.88085 -177.01892 31177 ft 502 kts 271°
2026-05-04 07:47 51.88240 -177.07430 31500 ft 501 kts 270°
2026-05-04 07:47 51.88389 -177.13069 31822 ft 500 kts 270°
2026-05-04 07:47 51.88528 -177.18530 32135 ft 500 kts 270°
2026-05-04 07:49 51.89418 -177.57040 33825 ft 498 kts 271°
2026-05-04 07:49 51.89527 -177.62216 34010 ft 498 kts 271°
2026-05-04 07:49 51.89634 -177.67368 34197 ft 498 kts 270°
2026-05-04 07:50 51.89739 -177.72508 34320 ft 499 kts 270°
2026-05-04 07:50 51.89841 -177.77646 34489 ft 498 kts 270°
2026-05-04 07:50 51.89948 -177.83102 34693 ft 498 kts 270°
2026-05-04 07:50 51.90054 -177.88693 34875 ft 497 kts 270°
2026-05-04 07:51 51.90159 -177.94290 35065 ft 496 kts 270°
2026-05-04 07:51 51.90259 -177.99844 35248 ft 495 kts 270°
2026-05-04 07:51 51.90357 -178.05409 35436 ft 494 kts 270°
2026-05-04 07:51 51.90451 -178.10884 35663 ft 492 kts 270°
2026-05-04 07:52 51.90545 -178.16454 35893 ft 491 kts 270°
2026-05-04 07:52 51.90634 -178.21964 36085 ft 489 kts 270°
2026-05-04 07:52 51.90721 -178.27506 36270 ft 488 kts 270°
2026-05-04 07:52 51.90803 -178.32971 36443 ft 487 kts 270°
2026-05-04 07:53 51.90884 -178.38484 36629 ft 486 kts 271°
2026-05-04 07:54 51.91375 -178.76372 37657 ft 482 kts 270°
2026-05-04 07:55 51.91434 -178.81741 37782 ft 482 kts 270°
2026-05-04 07:55 51.91492 -178.87157 37928 ft 481 kts 270°
2026-05-04 07:55 51.91546 -178.92552 38050 ft 480 kts 270°
2026-05-04 07:55 51.91597 -178.97939 38198 ft 480 kts 270°
2026-05-04 07:56 51.91647 -179.03305 38359 ft 479 kts 270°
2026-05-04 07:56 51.91695 -179.08693 38498 ft 479 kts 270°
2026-05-04 07:56 51.91741 -179.14075 38613 ft 479 kts 270°
2026-05-04 07:56 51.91783 -179.19414 38738 ft 479 kts 270°
2026-05-04 07:57 51.91825 -179.24824 38864 ft 479 kts 270°
2026-05-04 07:57 51.91861 -179.30127 38973 ft 480 kts 270°
2026-05-04 07:57 51.91896 -179.35440 39080 ft 480 kts 270°
2026-05-04 07:57 51.91929 -179.40840 39202 ft 479 kts 270°
2026-05-04 07:58 51.91958 -179.46146 39325 ft 479 kts 270°
2026-05-04 07:58 51.91985 -179.51549 39429 ft 479 kts 269°
2026-05-04 07:58 51.92034 -179.62315 39610 ft 480 kts 269°
2026-05-04 07:59 51.92074 -179.73137 39759 ft 481 kts 269°
2026-05-04 07:59 51.92101 -179.83870 39882 ft 482 kts 269°
2026-05-04 08:00 51.92120 -179.94688 39889 ft 483 kts 269°
2026-05-04 08:02 51.92101 179.63820 39872 ft 484 kts 269°
2026-05-04 08:02 51.92075 179.53813 39868 ft 484 kts 269°
2026-05-04 08:03 51.92036 179.43007 39864 ft 484 kts 269°
2026-05-04 08:03 51.91988 179.32219 39862 ft 484 kts 269°
2026-05-04 08:04 51.91933 179.21774 39864 ft 485 kts 269°
2026-05-04 08:04 51.91867 179.11337 39848 ft 485 kts 269°
2026-05-04 08:05 51.91792 179.00858 39846 ft 485 kts 269°
2026-05-04 08:05 51.91708 178.90344 39844 ft 486 kts 269°
2026-05-04 08:06 51.91615 178.79822 39835 ft 487 kts 269°
2026-05-04 08:06 51.91511 178.69186 39834 ft 487 kts 269°
2026-05-04 08:08 51.91003 178.26982 39821 ft 487 kts 269°
2026-05-04 08:11 51.90252 177.79547 39815 ft 487 kts 269°
2026-05-04 08:11 51.89957 177.63663 39800 ft 486 kts 269°
2026-05-04 08:12 51.89750 177.53061 39774 ft 487 kts 269°
2026-05-04 08:12 51.89534 177.42430 39766 ft 487 kts 269°
2026-05-04 08:13 51.89348 177.31999 39761 ft 487 kts 272°
2026-05-04 08:13 51.89917 177.21597 39765 ft 487 kts 276°
2026-05-04 08:14 51.90609 177.11249 39764 ft 487 kts 276°
2026-05-04 08:16 51.93118 176.69595 39754 ft 486 kts 276°
2026-05-04 08:16 51.93711 176.59131 39759 ft 486 kts 276°
2026-05-04 08:17 51.94290 176.48743 39751 ft 486 kts 276°
2026-05-04 08:17 51.94862 176.38315 39755 ft 488 kts 277°
2026-05-04 08:19 51.97094 175.95914 39746 ft 486 kts 276°
2026-05-04 08:20 51.97622 175.85452 39745 ft 486 kts 276°
2026-05-04 08:20 51.98149 175.74818 39744 ft 486 kts 276°
2026-05-04 08:21 51.98658 175.64325 39742 ft 487 kts 276°
2026-05-04 08:21 51.99161 175.53780 39736 ft 486 kts 276°
2026-05-04 08:22 51.99655 175.43188 39743 ft 486 kts 276°
2026-05-04 08:24 52.01521 175.01286 39734 ft 485 kts 275°
2026-05-04 08:24 52.01960 174.90895 39733 ft 484 kts 275°
2026-05-04 08:25 52.02390 174.80508 39727 ft 485 kts 276°
2026-05-04 08:25 52.02813 174.70062 39729 ft 484 kts 276°
2026-05-04 08:27 52.04411 174.28322 39718 ft 483 kts 275°
2026-05-04 08:28 52.04786 174.17917 39725 ft 482 kts 275°
2026-05-04 08:28 52.05150 174.07548 39713 ft 482 kts 275°
2026-05-04 08:29 52.05507 173.97139 39720 ft 481 kts 275°
2026-05-04 08:31 52.06843 173.55496 39731 ft 480 kts 275°
2026-05-04 08:33 52.08031 173.13888 39731 ft 478 kts 274°
2026-05-04 08:35 52.09066 172.72430 39745 ft 476 kts 275°
2026-05-04 08:35 52.09302 172.62076 39744 ft 476 kts 274°
2026-05-04 08:37 52.10059 172.25812 39741 ft 474 kts 274°
2026-05-04 08:38 52.10249 172.15593 39749 ft 474 kts 274°
2026-05-04 08:38 52.10435 172.05234 39741 ft 473 kts 274°
2026-05-04 08:40 52.11086 171.64206 39741 ft 470 kts 274°
2026-05-04 08:41 52.11225 171.53909 39744 ft 470 kts 274°
2026-05-04 08:41 52.11356 171.43613 39733 ft 470 kts 274°
2026-05-04 08:42 52.11479 171.33340 39747 ft 469 kts 273°
2026-05-04 08:42 52.11591 171.23051 39756 ft 468 kts 273°
2026-05-04 08:43 52.11696 171.12826 39751 ft 467 kts 273°
2026-05-04 08:43 52.11791 171.02649 39752 ft 468 kts 274°
2026-05-04 08:44 52.11878 170.92415 39758 ft 467 kts 273°
2026-05-04 08:46 52.09222 170.51842 39768 ft 470 kts 262°
2026-05-04 08:46 52.07927 170.41763 39772 ft 470 kts 262°
2026-05-04 08:47 52.06629 170.31700 39769 ft 468 kts 261°
2026-05-04 08:47 52.05321 170.21597 39774 ft 468 kts 261°
2026-05-04 08:48 52.04001 170.11475 39778 ft 469 kts 261°
2026-05-04 08:48 52.02668 170.01320 39773 ft 468 kts 261°
2026-05-04 08:49 52.01344 169.91318 39768 ft 468 kts 261°
2026-05-04 08:50 51.96630 169.56210 39760 ft 464 kts 261°
2026-05-04 08:51 51.95256 169.46158 39765 ft 463 kts 262°
2026-05-04 08:51 51.93891 169.36208 39773 ft 463 kts 262°
2026-05-04 08:52 51.92488 169.26068 39783 ft 463 kts 261°
2026-05-04 08:52 51.91095 169.16066 39783 ft 463 kts 261°
2026-05-04 08:54 51.85474 168.76367 39790 ft 460 kts 261°
2026-05-04 08:55 51.84054 168.66502 39792 ft 459 kts 261°
2026-05-04 08:55 51.82627 168.56639 39787 ft 459 kts 261°
2026-05-04 09:01 51.67297 167.54550 39790 ft 450 kts 261°
2026-05-04 09:01 51.65813 167.45009 39796 ft 450 kts 261°
2026-05-04 09:02 51.64325 167.35484 39799 ft 449 kts 261°
2026-05-04 09:02 51.62827 167.25952 39805 ft 448 kts 260°
2026-05-04 09:03 51.61333 167.16515 39815 ft 444 kts 260°
2026-05-04 09:03 51.59848 167.07170 39829 ft 445 kts 260°
2026-05-04 09:04 51.58354 166.97835 39828 ft 443 kts 260°
2026-05-04 09:04 51.56852 166.88504 39831 ft 442 kts 260°
2026-05-04 09:05 51.55364 166.79303 39828 ft 440 kts 260°
2026-05-04 09:05 51.53859 166.70052 39835 ft 439 kts 260°
2026-05-04 09:06 51.52357 166.60869 39828 ft 437 kts 261°
2026-05-04 09:08 51.46308 166.24373 39826 ft 435 kts 260°
2026-05-04 09:08 51.44776 166.15257 39831 ft 435 kts 260°
2026-05-04 09:09 51.43248 166.06195 39832 ft 432 kts 260°
2026-05-04 09:09 51.41736 165.97308 39836 ft 430 kts 260°
2026-05-04 09:10 51.40215 165.88374 39831 ft 429 kts 260°
2026-05-04 09:10 51.38680 165.79428 39841 ft 427 kts 260°
2026-05-04 09:11 51.37151 165.70544 39832 ft 425 kts 260°
2026-05-04 09:11 51.35623 165.61763 39837 ft 425 kts 259°
2026-05-04 09:12 51.33947 165.53073 39848 ft 423 kts 259°
2026-05-04 09:14 51.27079 165.18408 39839 ft 419 kts 258°
2026-05-04 09:14 51.25383 165.09903 39855 ft 418 kts 258°
2026-05-04 09:15 51.23667 165.01355 39846 ft 414 kts 259°
2026-05-04 09:15 51.21961 164.92873 39860 ft 414 kts 258°
2026-05-04 09:17 51.14301 164.55269 39873 ft 408 kts 259°
2026-05-04 09:18 51.12606 164.47031 39861 ft 405 kts 258°
2026-05-04 09:18 51.10896 164.38741 39894 ft 403 kts 258°
2026-05-04 09:19 51.09199 164.30600 39861 ft 401 kts 258°
2026-05-04 09:19 51.07507 164.22475 39870 ft 400 kts 257°
2026-05-04 09:20 51.05802 164.14340 39880 ft 398 kts 259°
2026-05-04 09:20 51.04116 164.06325 39887 ft 397 kts 258°
2026-05-04 09:21 51.02432 163.98329 39871 ft 394 kts 258°
2026-05-04 09:21 51.00745 163.90370 39853 ft 393 kts 258°
2026-05-04 09:22 50.99066 163.82472 39855 ft 392 kts 259°
2026-05-04 09:22 50.97374 163.74550 39858 ft 394 kts 259°
2026-05-04 09:23 50.95683 163.66644 39857 ft 391 kts 258°
2026-05-04 09:23 50.93981 163.58739 39861 ft 391 kts 258°
2026-05-04 09:25 50.87169 163.27400 39868 ft 389 kts 258°
2026-05-04 09:26 50.85476 163.19675 39865 ft 388 kts 257°
2026-05-04 09:26 50.83761 163.11900 39866 ft 389 kts 258°
2026-05-04 09:27 50.82058 163.04169 39870 ft 387 kts 257°
2026-05-04 09:27 50.80328 162.96394 39867 ft 387 kts 257°
2026-05-04 09:28 50.78611 162.88672 39869 ft 387 kts 258°
2026-05-04 09:28 50.76866 162.80881 39870 ft 388 kts 258°
2026-05-04 09:29 50.75147 162.73195 39865 ft 386 kts 258°
2026-05-04 09:29 50.73412 162.65500 39865 ft 387 kts 258°
2026-05-04 09:30 50.71669 162.57768 39869 ft 387 kts 257°
2026-05-04 09:30 50.69928 162.50093 39870 ft 385 kts 257°
2026-05-04 09:31 50.68192 162.42491 39871 ft 384 kts 257°
2026-05-04 09:31 50.66466 162.34929 39871 ft 385 kts 256°
2026-05-04 09:32 50.64652 162.27013 39872 ft 382 kts 257°
2026-05-04 09:34 50.57419 161.95741 39853 ft 380 kts 257°
2026-05-04 09:34 50.55598 161.87946 39852 ft 380 kts 256°
2026-05-04 09:35 50.53775 161.80162 39852 ft 378 kts 257°
2026-05-04 09:35 50.51987 161.72553 39853 ft 378 kts 256°
2026-05-04 09:37 50.44892 161.42659 39853 ft 373 kts 256°
2026-05-04 09:38 50.43103 161.35190 39850 ft 372 kts 256°
2026-05-04 09:38 50.41323 161.27782 39861 ft 372 kts 256°
2026-05-04 09:39 50.39560 161.20458 39851 ft 372 kts 256°
2026-05-04 09:39 50.37791 161.13132 39854 ft 370 kts 256°
2026-05-04 09:40 50.36026 161.05846 39858 ft 368 kts 256°
2026-05-04 09:40 50.34254 160.98570 39864 ft 368 kts 255°
2026-05-04 09:42 50.27170 160.69717 39871 ft 367 kts 255°
2026-05-04 09:43 50.25394 160.62517 39864 ft 365 kts 255°
2026-05-04 09:43 50.23605 160.55324 39861 ft 365 kts 255°
2026-05-04 09:44 50.21794 160.48125 39859 ft 365 kts 254°
2026-05-04 09:46 50.11430 160.21463 39861 ft 374 kts 244°
2026-05-04 09:46 50.08513 160.15074 39861 ft 374 kts 243°
2026-05-04 09:47 50.05575 160.08673 39860 ft 372 kts 243°
2026-05-04 09:49 49.93830 159.83299 39868 ft 371 kts 242°
2026-05-04 09:51 49.83550 159.61307 39846 ft 369 kts 243°
2026-05-04 09:51 49.80636 159.55106 39848 ft 367 kts 242°
2026-05-04 09:52 49.77721 159.48912 39853 ft 367 kts 242°
2026-05-04 09:52 49.74810 159.42749 39852 ft 366 kts 242°
2026-05-04 09:53 49.71893 159.36587 39849 ft 365 kts 243°
2026-05-04 09:53 49.68943 159.30456 39843 ft 366 kts 242°
2026-05-04 09:54 49.66005 159.24468 39858 ft 366 kts 240°
2026-05-04 09:54 49.63076 159.18506 39840 ft 362 kts 241°
2026-05-04 09:55 49.60196 159.12662 39847 ft 359 kts 241°
2026-05-04 09:55 49.57253 159.06686 39847 ft 359 kts 241°
2026-05-04 09:56 49.54332 159.00777 39853 ft 360 kts 241°
2026-05-04 09:56 49.51399 158.94850 39851 ft 359 kts 240°
2026-05-04 09:57 49.48459 158.88922 39863 ft 359 kts 241°
2026-05-04 09:57 49.45525 158.83017 39848 ft 359 kts 240°
2026-05-04 09:58 49.42624 158.77193 39867 ft 359 kts 240°
2026-05-04 09:58 49.39711 158.71364 39858 ft 359 kts 241°
2026-05-04 10:00 49.27975 158.47984 39849 ft 355 kts 240°
2026-05-04 10:04 49.07450 158.07584 39850 ft 354 kts 239°
2026-05-04 10:04 49.04520 158.01871 39833 ft 353 kts 239°
2026-05-04 10:05 49.01594 157.96184 39839 ft 353 kts 240°
2026-05-04 10:05 48.98660 157.90474 39830 ft 352 kts 239°
2026-05-04 10:06 48.95732 157.84801 39829 ft 353 kts 239°
2026-05-04 10:06 48.92815 157.79153 39825 ft 352 kts 239°
2026-05-04 10:08 48.82559 157.59398 39834 ft 353 kts 239°
2026-05-04 10:08 48.79620 157.53760 39825 ft 352 kts 238°
2026-05-04 10:09 48.76679 157.48148 39833 ft 352 kts 238°
2026-05-04 10:09 48.73736 157.42537 39829 ft 352 kts 239°
2026-05-04 10:10 48.70809 157.36958 39831 ft 352 kts 239°
2026-05-04 10:10 48.67871 157.31378 39827 ft 352 kts 238°
2026-05-04 10:11 48.64930 157.25790 39825 ft 353 kts 238°
2026-05-04 10:11 48.61970 157.20187 39821 ft 352 kts 237°
2026-05-04 10:12 48.59046 157.14665 39816 ft 352 kts 239°
2026-05-04 10:12 48.56080 157.09073 39817 ft 353 kts 238°
2026-05-04 10:13 48.53114 157.03500 39813 ft 352 kts 238°
2026-05-04 10:13 48.50173 156.97989 39818 ft 351 kts 238°
2026-05-04 10:14 48.47217 156.92453 39807 ft 351 kts 238°
2026-05-04 10:16 48.35417 156.70459 39792 ft 348 kts 237°
2026-05-04 10:16 48.32480 156.65025 39783 ft 349 kts 238°
2026-05-04 10:17 48.29504 156.59512 39777 ft 350 kts 237°
2026-05-04 10:19 48.17614 156.37617 39762 ft 350 kts 237°
2026-05-04 10:19 48.14645 156.32184 39762 ft 349 kts 237°
2026-05-04 10:20 48.11669 156.26749 39748 ft 350 kts 237°
2026-05-04 10:20 48.08685 156.21315 39748 ft 351 kts 237°
2026-05-04 10:21 48.05719 156.15912 39743 ft 350 kts 237°
2026-05-04 10:21 48.02711 156.10442 39740 ft 352 kts 237°
2026-05-04 10:22 47.98225 156.02303 39732 ft 351 kts 236°
2026-05-04 10:23 47.95229 155.96890 39721 ft 350 kts 236°
2026-05-04 10:25 47.83223 155.75308 39710 ft 352 kts 237°
2026-05-04 10:25 47.80220 155.69934 39700 ft 351 kts 236°
2026-05-04 10:26 47.77229 155.64589 39697 ft 350 kts 236°
2026-05-04 10:26 47.74233 155.59236 39696 ft 350 kts 236°
2026-05-04 10:27 47.71219 155.53888 39691 ft 349 kts 236°
2026-05-04 10:27 47.68236 155.48589 39695 ft 350 kts 237°
2026-05-04 10:28 47.65203 155.43204 39687 ft 350 kts 236°
2026-05-04 10:28 47.62205 155.37895 39691 ft 349 kts 236°
2026-05-04 10:29 47.59205 155.32611 39684 ft 349 kts 235°
2026-05-04 10:29 47.56216 155.27353 39674 ft 348 kts 236°
2026-05-04 10:30 47.53229 155.22099 39666 ft 348 kts 236°
2026-05-04 10:30 47.50248 155.16876 39658 ft 348 kts 235°
2026-05-04 10:31 47.47257 155.11623 39653 ft 347 kts 234°
2026-05-04 10:32 47.36788 154.93378 39652 ft 346 kts 235°
2026-05-04 10:33 47.33813 154.88219 39654 ft 346 kts 236°
2026-05-04 10:33 47.30812 154.83015 39651 ft 344 kts 235°
2026-05-04 10:34 47.27827 154.77855 39631 ft 344 kts 236°
2026-05-04 10:34 47.24853 154.72728 39618 ft 343 kts 236°
2026-05-04 10:35 47.21876 154.67583 39612 ft 342 kts 234°
2026-05-04 10:35 47.18915 154.62491 39613 ft 341 kts 234°
2026-05-04 10:36 47.15945 154.57397 39607 ft 341 kts 235°
2026-05-04 10:36 47.12971 154.52310 39607 ft 341 kts 235°
2026-05-04 10:37 47.09980 154.47189 39599 ft 342 kts 235°
2026-05-04 10:37 47.06930 154.41983 39588 ft 342 kts 235°
2026-05-04 10:39 46.96593 154.24406 39563 ft 341 kts 234°
2026-05-04 10:40 46.93623 154.19391 39560 ft 341 kts 234°
2026-05-04 10:40 46.90622 154.14308 39569 ft 341 kts 234°
2026-05-04 10:41 46.87665 154.09329 39569 ft 340 kts 233°